This is the latest recevied weather packets stored in our database for station/object KF0JHJ. If no packets are shown the sender has not sent any weather packets the latest 10 day(s).
| Time | Temp. | Humidity | Pressure | Rain* | Wind** | Luminosity | Snow |
|---|---|---|---|---|---|---|---|
| 1778033118 | 5.56° C | 54% | 1010.3 hPa | - | - | 0 W/m² | - |
| 1778032816 | 5.56° C | 53% | 1010.1 hPa | - | - | 0 W/m² | - |
| 1778032513 | 6.11° C | 52% | 1010.2 hPa | - | - | 0 W/m² | - |
| 1778032210 | 6.11° C | 52% | 1010.2 hPa | - | - | 0 W/m² | - |
| 1778031907 | 6.11° C | 52% | 1010.1 hPa | - | - | 0 W/m² | - |
| 1778031603 | 6.11° C | 51% | 1009.8 hPa | - | - | 0 W/m² | - |
| 1778031301 | 6.67° C | 51% | 1010.2 hPa | - | - | 0 W/m² | - |
| 1778030997 | 6.67° C | 51% | 1010 hPa | - | - | 0 W/m² | - |
| 1778030693 | 6.67° C | 50% | 1009.8 hPa | - | - | 0 W/m² | - |
| 1778030391 | 6.67° C | 50% | 1009.8 hPa | - | - | 0 W/m² | - |
| 1778030088 | 7.22° C | 49% | 1009.8 hPa | - | - | 2 W/m² | - |
| 1778029784 | 7.22° C | 49% | 1009.7 hPa | - | - | 4 W/m² | - |
| 1778029484 | 7.78° C | 49% | 1009.6 hPa | - | - | 6 W/m² | - |
| 1778029179 | 7.78° C | 48% | 1009.3 hPa | - | - | 9 W/m² | - |
| 1778028877 | 7.78° C | 48% | 1009.4 hPa | - | - | 16 W/m² | - |
| 1778028572 | 7.78° C | 48% | 1009.3 hPa | - | - | 18 W/m² | - |
| 1778028271 | 7.78° C | 47% | 1009 hPa | - | - | 17 W/m² | - |
| 1778027966 | 8.33° C | 47% | 1009.2 hPa | - | - | 24 W/m² | - |
| 1778027663 | 8.33° C | 48% | 1009.2 hPa | - | - | 22 W/m² | - |
| 1778027360 | 8.33° C | 48% | 1009.3 hPa | - | - | 24 W/m² | - |
| 1778027056 | 8.33° C | 46% | 1009.2 hPa | - | - | 17 W/m² | - |
| 1778026751 | 8.33° C | 47% | 1009.1 hPa | - | - | 18 W/m² | - |
| 1778026448 | 8.33° C | 47% | 1009.1 hPa | - | - | 22 W/m² | - |
| 1778026146 | 8.89° C | 46% | 1009.2 hPa | - | - | 26 W/m² | - |
| 1778025843 | 8.89° C | 46% | 1009.1 hPa | - | - | 31 W/m² | - |
* Rain since midnight (hover to see other rain measurements)
** Current wind speed in m/s (hover to see current wind gust speed)